TimeCST,TemperatureF,Dew PointF,Humidity,Sea Level PressureIn,VisibilityMPH,Wind Direction,Wind SpeedMPH,Gust SpeedMPH,PrecipitationIn,Events,Conditions,WindDirDegrees,DateUTC
12:52 AM,46.0,34.0,63,30.33,10.0,ESE,5.8,-,N/A,,Overcast,120,2012-11-16 06:52:00
1:52 AM,46.9,33.1,59,30.34,10.0,ESE,4.6,-,N/A,,Overcast,110,2012-11-16 07:52:00
2:52 AM,48.0,32.0,54,30.34,10.0,SSE,4.6,-,N/A,,Overcast,160,2012-11-16 08:52:00
3:52 AM,46.9,34.0,61,30.35,10.0,ENE,5.8,-,N/A,,Overcast,60,2012-11-16 09:52:00
4:52 AM,45.0,34.0,65,30.35,10.0,ENE,5.8,-,N/A,,Scattered Clouds,70,2012-11-16 10:52:00
5:52 AM,42.1,34.0,73,30.37,10.0,East,5.8,-,N/A,,Partly Cloudy,100,2012-11-16 11:52:00
6:52 AM,42.1,33.1,70,30.38,10.0,ESE,3.5,-,N/A,,Scattered Clouds,120,2012-11-16 12:52:00
7:52 AM,39.9,33.1,77,30.40,10.0,ENE,4.6,-,N/A,,Partly Cloudy,60,2012-11-16 13:52:00
8:52 AM,46.0,34.0,63,30.41,10.0,East,6.9,-,N/A,,Partly Cloudy,90,2012-11-16 14:52:00
9:52 AM,52.0,33.1,49,30.41,10.0,ESE,6.9,-,N/A,,Partly Cloudy,110,2012-11-16 15:52:00
10:52 AM,57.0,33.1,40,30.42,10.0,ESE,5.8,-,N/A,,Partly Cloudy,120,2012-11-16 16:52:00
11:52 AM,59.0,30.0,33,30.39,10.0,ESE,6.9,-,N/A,,Partly Cloudy,110,2012-11-16 17:52:00
12:52 PM,61.0,24.1,24,30.36,10.0,ESE,6.9,-,N/A,,Clear,120,2012-11-16 18:52:00
1:52 PM,63.0,27.0,26,30.33,10.0,East,5.8,-,N/A,,Clear,90,2012-11-16 19:52:00
2:52 PM,64.0,28.0,26,30.32,10.0,ESE,10.4,-,N/A,,Clear,110,2012-11-16 20:52:00
3:52 PM,64.0,30.9,29,30.31,10.0,East,5.8,-,N/A,,Clear,90,2012-11-16 21:52:00
4:52 PM,61.0,32.0,34,30.31,10.0,ESE,5.8,-,N/A,,Clear,110,2012-11-16 22:52:00
5:52 PM,54.0,33.1,45,30.32,10.0,ESE,8.1,-,N/A,,Clear,110,2012-11-16 23:52:00
6:52 PM,52.0,33.1,49,30.33,10.0,East,8.1,-,N/A,,Clear,100,2012-11-17 00:52:00
7:52 PM,46.0,33.1,61,30.34,10.0,ESE,6.9,-,N/A,,Clear,120,2012-11-17 01:52:00
8:52 PM,46.0,32.0,58,30.34,10.0,SE,8.1,-,N/A,,Clear,130,2012-11-17 02:52:00
9:52 PM,46.0,30.0,54,30.35,10.0,South,6.9,-,N/A,,Clear,170,2012-11-17 03:52:00
10:52 PM,44.1,30.0,58,30.34,10.0,ESE,4.6,-,N/A,,Clear,120,2012-11-17 04:52:00
11:52 PM,41.0,30.9,67,30.34,10.0,ESE,6.9,-,N/A,,Clear,120,2012-11-17 05:52:00